Regional Weather Roundup
Issued by NWS Midland/Odessa, TX

Skip options and go directly to product.
Home | Oldest Version | Previous Version | Current Version | All | Text Only | Save Text | Print | Product List | Glossary Off

Skip product version selection by date and time.   

122
ASUS44 KMAF 291110
RWRMAF
MIDLAND AREA WEATHER ROUNDUP
NATIONAL WEATHER SERVICE MIDLAND TX
600 AM CDT SUN MAY 29 2016

...IN SOUTHWEST TEXAS AND SOUTHEAST NEW MEXICO...

CITY           SKY/WX    TMP DP  RH WIND       PRES   REMARKS
ALPINE         CLEAR     66  60  80 CALM      30.12S
ANDREWS        MOCLDY    65  61  87 SE14G22   30.08R
ARTESIA        MOCLDY    63  30  29 NW6       30.05R
BIG SPRING     CLOUDY    64  59  83 E15       30.08R
CARLSBAD       CLOUDY    69  61  75 SE6       30.01R
DRYDEN           N/A     69  67  93 E20G28    30.00R
FORT STOCKTON  NOT AVBL
GUAD PASS      NOT AVBL
HOBBS          PTCLDY    64  64 100 E20       30.08R
MARFA          CLEAR     56  50  80 N3        30.11R
MIDLAND AIRPK  CLOUDY    71  61  70 SE16G22   30.07R
MIDLAND INTL   CLOUDY    72  59  63 E15G26    30.06R
ODESSA         CLOUDY    71  58  63 SE16G25   30.06R
PECOS          CLOUDY    74  67  79 E21       29.97R
PRESIDIO       FAIR      77  61  58 N9        29.96R
SEMINOLE       CLOUDY    66  58  76 SE16      30.09R
SNYDER           N/A     62  58  86 E8        30.09R
WINK           NOT AVBL
$$
...OTHER STATIONS IN TEXAS...

CITY           SKY/WX    TMP DP  RH WIND       PRES   REMARKS
ABILENE        CLOUDY    65  60  84 E14       30.07R
AMARILLO       CLEAR     57  52  83 SE12      30.12R
AUSTIN         LGT RAIN  72  70  93 SW6       30.06F
BROWNSVILLE    CLOUDY    79  78  97 E5        29.94R
CORPUS CHRISTI MOCLDY    80  76  87 E7        29.99R
DALLAS FTW     TSTM      68  62  81 W18G37    30.12R
DEL RIO        CLOUDY    70  65  84 E14       29.98R
EL PASO        CLOUDY    74   4   6 E5        30.05R
HOUSTON INT    CLOUDY    71  71 100 CALM      30.05R
LUBBOCK        PTCLDY    64  55  72 SE13      30.10R
SAN ANGELO     TSTM      67  64  90 E15       30.09S
SAN ANTONIO    CLOUDY    70  67  90 N10       30.07F THUNDER
WACO           CLOUDY    72  69  90 N5        30.06R
WICHITA FALLS  NOT AVBL
$$
...OTHER LOCATIONS IN NEW MEXICO...

CITY           SKY/WX    TMP DP  RH WIND       PRES   REMARKS
ALAMAGORDO     PTCLDY    59  12  15 E3        30.07R
ALBUQUERQUE    PTCLDY    56  15  20 E7        30.11R
CANNON AFB     MOCLDY    57  52  82 SE6       30.14R
CLOVIS         MOCLDY    59  48  67 S12       30.13R
HOLLOMAN AFB   PTCLDY    57  13  17 E7        30.05R
ROSWELL        CLOUDY    64  45  49 N5        30.05R
RUIDOSO          N/A     54   9  16 SW9       30.23R
SANTA FE       CLOUDY    51  21  30 NE12      30.18R
TRUTH OR CONSE PTCLDY    58   9  14 W7        30.08R
TUCUMCARI      PTCLDY    60  50  69 NE3       30.11R
$$

USA.gov is the U.S. government's official web portal to all federal, state and local government web resources and services.